Marrakech, Morocco

9:51 PM WET on February 20, 2018 (GMT +0000)
Marrakech

Weather History for GMMX - April, 2014

Change the Weather History Date:

Saturday, April 19, 2014

  Actual Average Record
Temperature  
Mean Temperature 64 °F -  
Max Temperature 73 °F 79 °F 99 °F (2013)
Min Temperature 55 °F 55 °F 33 °F (1999)
Degree Days  
Heating Degree Days 1    
Growing Degree Days 14 (Base 50)    
Moisture  
Dew Point 53 °F    
Average Humidity 65    
Maximum Humidity 94    
Minimum Humidity 29    
Precipitation  
Precipitation 0.00 in 0.04 in - ()
Sea Level Pressure  
Sea Level Pressure 29.94 in    
Wind  
Wind Speed 7 mph ()    
Max Wind Speed 16 mph    
Max Gust Speed -    
Visibility 6.2 miles    
Events      
Averages and records for this station are not official NWS values.
T = Trace of Precipitation, MM = Missing Value Source: Averaged Metar Reports

Daily Weather History Graph

Daily Weather History Graph

Search for Another Location

Airport or City:

Trip Planner

Search our weather history database for the weather conditions in past years. The results will help you decide how hot, cold, wet, or windy it might be!

Date:

Astronomy

Apr. 19, 2014 Rise Set
Actual Time 6:59 AM WEST 8:03 PM WEST
Civil Twilight 6:34 AM WEST 8:28 PM WEST
Nautical Twilight 6:04 AM WEST 8:58 PM WEST
Astronomical Twilight 5:33 AM WEST 9:29 PM WEST
Moon No Moon Rise 10:12 AM WEST (4/19)
Length of Visible Light 13h 54m
Length of Day
13h 04m
Waning Gibbous, 81% of the Moon is Illuminated
Apr 19
Waning Gibbous
Apr 22
Last Quarter
Apr 29
New
May 7
First Quarter
May 14
Full

Hourly Weather History & Observations

Time (WEST) Temp. Dew Point Humidity Pressure Visibility Wind Dir Wind Speed Gust Speed Precip Events Conditions
12:00 AM 66.2 °F 53.6 °F 64% 29.98 in - NNE 3.5 mph - N/A   Clear
12:30 AM 64.4 °F 55.4 °F 73% 29.98 in - WSW 5.8 mph - N/A   Clear
1:00 AM 62 °F 55 °F 71% 29.96 in 6 mi WSW 6.9 mph - -   Clear
1:00 AM 62.6 °F 55.4 °F 77% 29.98 in - WSW 6.9 mph - N/A   Clear
4:00 AM 58 °F 53 °F 79% 29.96 in - WSW 6.9 mph - -  
5:00 AM 55.4 °F 53.6 °F 94% 29.95 in 6.2 mi West 4.6 mph - N/A   Scattered Clouds
5:30 AM 55.4 °F 53.6 °F 94% 29.95 in 6.2 mi WSW 5.8 mph - N/A   Scattered Clouds
6:00 AM 55.4 °F 53.6 °F 94% 29.95 in 6.2 mi WSW 6.9 mph - N/A   Scattered Clouds
6:30 AM 55.4 °F 53.6 °F 94% 29.95 in 6.2 mi West 3.5 mph - N/A   Scattered Clouds
7:00 AM 56 °F 53 °F 86% 29.93 in 6 mi Calm Calm - -   Partly Cloudy
7:00 AM 55.4 °F 53.6 °F 94% 29.92 in 6.2 mi Calm Calm - N/A   Scattered Clouds
8:00 AM 57.2 °F 53.6 °F 88% 29.95 in 6.2 mi West 8.1 mph - N/A   Mostly Cloudy
8:30 AM 57.2 °F 53.6 °F 88% 29.95 in 6.2 mi WNW 4.6 mph - N/A   Mostly Cloudy
9:00 AM 59.0 °F 53.6 °F 82% 29.95 in 6.2 mi SW 4.6 mph - N/A   Mostly Cloudy
9:30 AM 59.0 °F 53.6 °F 82% 29.92 in 6.2 mi SW 3.5 mph - N/A   Mostly Cloudy
10:00 AM 61 °F 54 °F 70% 29.90 in 6 mi West 1.2 mph - -   Partly Cloudy
10:00 AM 60.8 °F 53.6 °F 77% 29.92 in 6.2 mi Variable 2.3 mph - N/A   Mostly Cloudy
10:30 AM 62.6 °F 53.6 °F 72% 29.92 in 6.2 mi NNW 3.5 mph - N/A   Mostly Cloudy
11:00 AM 64.4 °F 55.4 °F 73% 29.89 in 6.2 mi Variable 2.3 mph - N/A   Mostly Cloudy
11:30 AM 66.2 °F 55.4 °F 68% 29.92 in 6.2 mi NW 6.9 mph - N/A   Mostly Cloudy
12:00 PM 68.0 °F 55.4 °F 64% 29.92 in 6.2 mi West 11.5 mph - N/A   Mostly Cloudy
12:30 PM 68.0 °F 55.4 °F 64% 29.92 in 6.2 mi West 11.5 mph - N/A   Mostly Cloudy
1:00 PM 68 °F 56 °F 55% 29.89 in 6 mi West 11.5 mph - -   Partly Cloudy
1:00 PM 68.0 °F 55.4 °F 64% 29.92 in 6.2 mi West 11.5 mph - N/A   Mostly Cloudy
1:30 PM 68.0 °F 55.4 °F 64% 29.95 in 6.2 mi West 12.7 mph - N/A   Mostly Cloudy
2:00 PM 69.8 °F 55.4 °F 60% 29.92 in 6.2 mi West 13.8 mph - N/A   Mostly Cloudy
2:30 PM 71.6 °F 55.4 °F 57% 29.92 in 6.2 mi West 13.8 mph - N/A   Scattered Clouds
3:00 PM 71.6 °F 55.4 °F 57% 29.95 in 6.2 mi West 13.8 mph - N/A   Scattered Clouds
3:30 PM 73.4 °F 55.4 °F 53% 29.95 in 6.2 mi West 13.8 mph - N/A   Scattered Clouds
4:00 PM 72 °F 54 °F 43% 29.88 in 6 mi WSW 16.1 mph - -   Partly Cloudy
4:00 PM 71.6 °F 55.4 °F 57% 29.92 in 6.2 mi WSW 16.1 mph - N/A   Scattered Clouds
4:30 PM 71.6 °F 53.6 °F 53% 29.95 in 6.2 mi WSW 11.5 mph - N/A   Scattered Clouds
5:00 PM 71.6 °F 55.4 °F 57% 29.92 in 6.2 mi WSW 10.4 mph - N/A   Scattered Clouds
5:30 PM 71.6 °F 55.4 °F 57% 29.92 in 6.2 mi West 6.9 mph - N/A   Scattered Clouds
6:00 PM 71.6 °F 53.6 °F 53% 29.92 in 6.2 mi WSW 9.2 mph - N/A   Scattered Clouds
6:30 PM 71.6 °F 53.6 °F 53% 29.92 in 6.2 mi SW 6.9 mph - N/A   Scattered Clouds
7:00 PM 73 °F 47 °F 29% 29.86 in 6 mi West 8.1 mph - -   Partly Cloudy
7:00 PM 73.4 °F 48.2 °F 41% 29.92 in 6.2 mi West 8.1 mph - N/A   Scattered Clouds
7:30 PM 71.6 °F 44.6 °F 38% 29.92 in 6.2 mi West 11.5 mph - N/A   Scattered Clouds
8:00 PM 71.6 °F 42.8 °F 35% 29.92 in 6.2 mi West 12.7 mph - N/A   Mostly Cloudy
8:30 PM 69.8 °F 44.6 °F 40% 29.95 in 6.2 mi WNW 10.4 mph - N/A   Mostly Cloudy
9:00 PM 68.0 °F 46.4 °F 46% 29.95 in 6.2 mi WNW 10.4 mph - N/A   Mostly Cloudy
9:30 PM 66.2 °F 50.0 °F 56% 29.95 in 6.2 mi NW 8.1 mph - N/A   Scattered Clouds
10:00 PM 66 °F 52 °F 51% 29.94 in 6 mi NW 10.4 mph - -   Partly Cloudy
10:00 PM 66.2 °F 51.8 °F 60% 29.98 in 6.2 mi WNW 10.4 mph - N/A   Scattered Clouds
10:30 PM 64.4 °F 51.8 °F 64% 29.98 in 6.2 mi WNW 10.4 mph - N/A   Scattered Clouds
11:00 PM 62.6 °F 51.8 °F 68% 30.01 in 6.2 mi West 11.5 mph - N/A   Scattered Clouds
11:30 PM 62.6 °F 51.8 °F 68% 30.01 in 6.2 mi West 10.4 mph - N/A   Scattered Clouds